Flag for France Weather past 2 weeks in Le Havre, France

Now
52 °F

Drizzle. Fog.


Feels Like: 46 °F
Forecast: 49 / 52 °F
Wind: 20 mph from Southwest

Location: La Heve

Current Time: Mar 28, 2015 at 7:14:48 PM

Latest Report: Mar 28, 2015 at 6:30 PM


Visibility: 1 mi

Pressure: 29.95 "Hg

Humidity: 94%

Dew point: 50 °F

Location of Le HavreLocation

Historic Weather in Le Havre — Graph

°F

Le Havre temperature yesterday

Maximum temperature yesterday: 52 °F (at 3:30 PM)
Minimum temperature yesterday: 45 °F (at 2:00 AM)
Average temperature yesterday: 47 °F

Past Weeks' High & Low Weather Summary

 TemperatureHumidityPressure
High57 °F (Mar 28, 2:30 PM)100% (Mar 18, 4:00 AM)30.45 "Hg (Mar 18, 4:00 AM)
Low30 °F (Mar 23, 6:30 AM)46% (Mar 14, 1:00 PM)29.65 "Hg (Mar 26, 10:00 AM)
Average44 °F82%30.14 "Hg
* Reported Mar 13 6:00 PM — Mar 28 6:00 PM, Le Havre, Weather by CustomWeather, © 2015

Note: Actual official high and low records may vary slightly from our data, if they occured in-between our weather recording intervals... More about our weather records

Advertising

Le Havre weather history for previous 24 hours

 ConditionsComfort  
Time TempWeatherWind HumidityBarometerVisibility
6:00 PM
Sat, Mar 28
52 °FDrizzle. Fog.21 mph94%29.95 "Hg2 mi
5:30 PM54 °FOvercast.17 mph88%29.95 "HgN/A
5:00 PM52 °FMostly cloudy.21 mph88%29.98 "HgN/A
4:30 PM52 °FOvercast.17 mph88%29.98 "HgN/A
4:00 PM54 °FLight rain. Mostly cloudy.20 mph82%29.98 "HgN/A
3:30 PM55 °FMostly cloudy.17 mph72%29.98 "HgN/A
3:00 PM57 °FPartly sunny.18 mph72%29.98 "HgN/A
2:30 PM57 °FOvercast.21 mph72%30.01 "HgN/A
2:00 PM55 °FScattered clouds.18 mph82%30.01 "HgN/A
1:30 PM55 °FBroken clouds.15 mph82%30.04 "HgN/A
1:00 PM52 °FMore clouds than sun.15 mph94%30.07 "HgN/A
12:30 PM50 °FLow clouds.17 mph100%30.07 "HgN/A
12:00 PM50 °FLow clouds.17 mph100%30.09 "HgN/A
11:30 AM50 °FLow clouds.16 mph100%30.07 "HgN/A
11:00 AM50 °FLow clouds.15 mph100%30.07 "HgN/A
10:30 AM50 °FLow clouds.16 mph100%30.07 "HgN/A
10:00 AM50 °FFog.16 mph100%30.07 "Hg2 mi
9:30 AM50 °FFog.15 mph94%30.07 "Hg3 mi
9:00 AM48 °FFog.15 mph100%30.09 "Hg0 mi
8:30 AM48 °FFog.15 mph100%30.09 "Hg0 mi
8:00 AM48 °FFog.14 mph100%30.09 "Hg0 mi
7:30 AM48 °FFog.13 mph100%30.09 "Hg0 mi
7:00 AM48 °FFog.10 mph100%30.09 "Hg0 mi
6:30 AM48 °FFog.14 mph100%30.09 "Hg0 mi
6:00 AM48 °FFog.13 mph100%30.09 "Hg0 mi
5:30 AM48 °FFog.13 mph100%30.09 "Hg0 mi
5:00 AM48 °FFog.14 mph100%30.09 "Hg0 mi
4:30 AM48 °FFog.12 mph100%30.09 "Hg0 mi
4:00 AM48 °FDrizzle. Fog.12 mph94%30.09 "Hg1 mi
3:30 AM48 °FDrizzle. Fog.12 mph94%30.09 "Hg1 mi
3:00 AM48 °FDrizzle. Fog.10 mph94%30.12 "Hg1 mi
2:30 AM46 °FDrizzle. Fog.10 mph100%30.12 "Hg1 mi
2:00 AM46 °FDrizzle. Fog.10 mph100%30.12 "Hg1 mi
1:30 AM46 °FLight rain. Fog.8 mph100%30.15 "Hg1 mi
1:00 AM46 °FDrizzle. Fog.9 mph93%30.15 "Hg2 mi
12:30 AM46 °FDrizzle. Fog.9 mph93%30.15 "Hg2 mi
12:00 AM48 °FDrizzle. Mostly cloudy.8 mph87%30.15 "Hg5 mi
11:30 PM
Fri, Mar 27
48 °FMostly cloudy.9 mph82%30.15 "HgN/A
11:00 PM48 °FLight rain. Mostly cloudy.10 mph82%30.18 "Hg5 mi
10:30 PM48 °FOvercast.8 mph76%30.18 "HgN/A
10:00 PM48 °FOvercast.7 mph76%30.18 "HgN/A
9:30 PM48 °FOvercast.7 mph76%30.18 "HgN/A
9:00 PM48 °FMostly cloudy.3 mph76%30.18 "HgN/A
8:30 PM46 °FPartly cloudy.2 mph82%30.18 "HgN/A
8:00 PM46 °FPartly cloudy.5 mph82%30.18 "HgN/A
7:30 PM46 °FPassing clouds.5 mph82%30.18 "HgN/A
7:00 PM46 °FClear.5 mph82%30.18 "HgN/A
Weather by CustomWeather, © 2015

See weather overviewHow to use our weather pages